This is the latest recevied weather packets stored in our database for station/object S54L-12. If no packets are shown the sender has not sent any weather packets the latest 10 day(s).
| Time | Temp. | Humidity | Pressure | Rain* | Wind** | Luminosity | Snow |
|---|---|---|---|---|---|---|---|
| 1777415284 | 10.56° C | 74% | 924.5 hPa | - | - | - | - |
| 1777414384 | 10.56° C | 73% | 924.6 hPa | - | - | - | - |
| 1777413484 | 10.56° C | 74% | 924.5 hPa | - | - | - | - |
| 1777412584 | 10.56° C | 76% | 924.3 hPa | - | - | - | - |
| 1777411684 | 10.56° C | 76% | 924.1 hPa | - | - | - | - |
| 1777410785 | 10.56° C | 75% | 924.1 hPa | - | - | - | - |
| 1777409885 | 10.56° C | 74% | 924.2 hPa | - | - | - | - |
| 1777408985 | 11.11° C | 72% | 924 hPa | - | - | - | - |
| 1777408084 | 11.11° C | 69% | 924 hPa | - | - | - | - |
| 1777407184 | 11.67° C | 69% | 923.9 hPa | - | - | - | - |
| 1777406284 | 11.67° C | 66% | 923.8 hPa | - | - | - | - |
| 1777405384 | 12.22° C | 60% | 923.8 hPa | - | - | - | - |
| 1777404484 | 12.22° C | 60% | 923.7 hPa | - | - | - | - |
| 1777403584 | 12.22° C | 58% | 923.5 hPa | - | - | - | - |
| 1777402684 | 12.22° C | 57% | 923.3 hPa | - | - | - | - |
| 1777401784 | 12.78° C | 56% | 923.1 hPa | - | - | - | - |
| 1777400884 | 13.33° C | 53% | 923 hPa | - | - | - | - |
| 1777399984 | 13.89° C | 51% | 922.9 hPa | - | - | - | - |
| 1777399084 | 13.89° C | 50% | 922.8 hPa | - | - | - | - |
| 1777398184 | 13.89° C | 48% | 922.6 hPa | - | - | - | - |
| 1777397284 | 14.44° C | 48% | 922.3 hPa | - | - | - | - |
| 1777396384 | 15° C | 47% | 922.2 hPa | - | - | - | - |
| 1777395484 | 15° C | 46% | 922 hPa | - | - | - | - |
| 1777394584 | 15.56° C | 45% | 922.1 hPa | - | - | - | - |
| 1777393684 | 16.11° C | 44% | 922 hPa | - | - | - | - |
* Rain since midnight (hover to see other rain measurements)
** Current wind speed in m/s (hover to see current wind gust speed)